DW6276 Weather Reports


Display with metric or nautical units.
time (UTC)temp
F
wind
direction
speed
MPH
gust
MPH
rain 1hr
in
rain 24hr
in
rain mn
in
humidity
%
barometer
mb
20260505170015 46 293 7.0 10.0 0.00 0.00 0.00 46 1011.6
20260505165015 46 315 4.0 8.0 0.00 0.00 0.00 49 1011.7
20260505164015 46 315 8.0 12.0 0.00 0.00 0.00 49 1011.8
20260505163037 46 315 7.0 10.0 0.00 0.00 0.00 48 1011.7
20260505162017 45 315 7.0 12.0 0.00 0.00 0.00 48 1011.6
20260505161037 47 0 5.0 10.0 0.00 0.00 0.00 46 1011.7
20260505153017 45 338 9.0 16.0 0.00 0.00 0.00 47 1011.6
20260505152017 45 315 6.0 9.0 0.00 0.00 0.00 47 1011.5
20260505151017 45 338 8.0 14.0 0.00 0.00 0.00 44 1011.5
20260505125017 39 0 2.0 4.0 0.00 0.00 0.00 69 1010.6
20260505124017 38 293 1.0 3.0 0.00 0.00 0.00 71 1010.5
20260505123017 37 293 1.0 2.0 0.00 0.00 0.00 74 1010.4
20260505122037 36 293 1.0 2.0 0.00 0.00 0.00 76 1010.2
20260505121017 35 0.0 2.0 0.00 0.00 0.00 80 1010.0
20260505120036 33 0.0 0.0 0.00 0.00 0.00 81 1009.8
20260505115037 31 0.0 2.0 0.00 0.00 0.00 81 1009.4
20260505114017 30 0.0 2.0 0.00 0.00 0.00 82 1009.2
20260505113016 29 0.0 2.0 0.00 0.00 0.00 82 1008.9
20260505112017 28 0.0 2.0 0.00 0.00 0.00 82 1008.7
20260505111017 28 0.0 1.0 0.00 0.00 0.00 80 1008.6
20260505102036 30 0.0 0.0 0.00 0.00 0.00 77 1008.4
20260505101017 30 0.0 0.0 0.00 0.00 0.00 76 1008.4
20260505100016 31 0.0 2.0 0.00 0.00 0.00 76 1008.5
20260505095017 32 0.0 1.0 0.00 0.00 0.00 76 1008.5
20260505094016 32 0.0 1.0 0.00 0.00 0.00 76 1008.5
20260505093016 32 338 1.0 2.0 0.00 0.00 0.00 76 1008.4
20260505092016 33 0.0 2.0 0.00 0.00 0.00 73 1008.3
20260505091056 34 338 1.0 2.0 0.00 0.00 0.00 72 1008.3
20260505090016 35 338 1.0 2.0 0.00 0.00 0.00 71 1008.2
20260505085016 36 315 2.0 5.0 0.00 0.00 0.00 69 1008.1
20260505084016 35 293 2.0 3.0 0.00 0.00 0.00 69 1008.1
20260505083016 35 315 2.0 3.0 0.00 0.00 0.00 70 1007.9
20260505082016 35 0.0 1.0 0.00 0.00 0.00 69 1007.7
20260505081016 36 0.0 1.0 0.00 0.00 0.00 68 1007.6
20260505080016 36 315 1.0 1.0 0.00 0.00 0.00 68 1007.7
20260505075016 37 315 3.0 5.0 0.00 0.00 0.00 68 1007.6
20260505074016 36 315 2.0 3.0 0.00 0.00 0.00 68 1007.4
20260505073016 36 293 1.0 3.0 0.00 0.00 0.00 66 1007.4
20260505072016 37 293 2.0 4.0 0.00 0.00 0.00 65 1007.5
20260505071016 37 293 1.0 2.0 0.00 0.00 0.00 64 1007.6
20260505070016 38 0.0 2.0 0.00 0.00 0.00 63 1007.5
20260505065016 38 270 1.0 2.0 0.00 0.00 0.00 63 1007.6
20260505064016 38 293 1.0 3.0 0.00 0.00 0.00 63 1007.7
20260505063016 38 0.0 2.0 0.00 0.00 0.00 63 1007.6
20260505062016 38 293 2.0 3.0 0.00 0.00 0.00 65 1007.6
20260505061036 38 315 2.0 4.0 0.00 0.00 0.00 64 1007.7
20260505060116 38 315 2.0 3.0 0.00 0.00 0.00 63 1007.7
20260505055016 38 293 2.0 2.0 0.00 0.00 0.00 62 1007.7
20260505054016 39 293 1.0 1.0 0.00 0.00 0.00 61 1007.7
20260505053016 39 293 1.0 2.0 0.00 0.00 0.00 62 1007.6
20260505052016 39 293 1.0 3.0 0.00 0.00 0.00 61 1007.6
20260505051016 39 0.0 0.0 0.00 0.00 0.00 59 1007.4
20260505041017 42 270 1.0 3.0 0.00 0.00 0.00 53 1007.2
20260505040016 42 270 2.0 4.0 0.00 0.00 0.00 53 1007.3
20260505035017 42 293 2.0 3.0 0.00 0.00 0.00 53 1007.2
20260505034016 42 293 1.0 3.0 0.00 0.00 0.00 52 1007.1
20260505033017 42 270 2.0 3.0 0.00 0.00 0.00 53 1007.1
20260505032016 42 270 1.0 2.0 0.00 0.00 0.00 53 1007.1
20260505031016 43 293 2.0 2.0 0.00 0.00 0.00 50 1007.1
20260505030016 44 293 1.0 3.0 0.00 0.00 0.00 48 1007.1
20260505025016 44 293 1.0 2.0 0.00 0.00 0.00 48 1007.2
20260505024036 44 315 2.0 2.0 0.00 0.00 0.00 49 1007.1
20260505023016 46 315 2.0 3.0 0.00 0.00 0.00 46 1007.0
20260505022016 47 0 4.0 7.0 0.00 0.00 0.00 44 1006.8
20260505021016 47 315 5.0 8.0 0.00 0.00 0.00 43 1006.7
20260505020036 48 315 6.0 8.0 0.00 0.00 0.00 42 1006.5
20260505015016 48 0 8.0 10.0 0.00 0.00 0.00 42 1006.4
20260505014016 49 315 7.0 11.0 0.00 0.00 0.00 43 1006.4
20260505013016 49 338 11.0 16.0 0.00 0.00 0.00 43 1006.2
20260505012016 50 0 12.0 17.0 0.00 0.00 0.00 42 1006.1
20260505011016 50 338 13.0 18.0 0.00 0.00 0.00 41 1005.8
20260505010016 51 338 12.0 22.0 0.00 0.00 0.00 44 1005.6
20260505005016 51 0 14.0 22.0 0.00 0.00 0.00 42 1005.3
20260505004016 52 338 14.0 20.0 0.00 0.00 0.00 41 1005.0
20260505003016 53 338 14.0 21.0 0.00 0.00 0.00 40 1004.9
20260505002016 53 315 12.0 21.0 0.00 0.00 0.00 39 1004.7
20260505001016 53 315 16.0 24.0 0.00 0.00 0.00 38 1004.5
20260505000016 54 338 16.0 23.0 0.00 0.00 0.00 38 1004.5
20260504235016 54 315 12.0 19.0 0.00 0.00 0.00 40 1004.6
20260504234016 54 315 16.0 21.0 0.00 0.00 0.00 39 1004.3
20260504233016 55 315 13.0 19.0 0.00 0.00 0.00 40 1004.4
20260504232016 55 0 17.0 25.0 0.00 0.00 0.00 40 1004.2
20260504231036 55 315 16.0 24.0 0.00 0.00 0.00 40 1003.9
20260504230016 56 338 17.0 23.0 0.00 0.00 0.00 39 1003.9
20260504225016 55 315 17.0 25.0 0.00 0.00 0.00 39 1003.8
20260504224016 56 315 18.0 25.0 0.00 0.00 0.00 39 1003.7
20260504223016 58 0 16.0 23.0 0.00 0.00 0.00 38 1003.3
20260504222016 58 315 17.0 26.0 0.00 0.00 0.00 38 1003.1
20260504221016 58 315 16.0 26.0 0.00 0.00 0.00 37 1003.2
20260504220016 58 338 18.0 24.0 0.00 0.00 0.00 37 1002.9
20260504215016 58 338 17.0 31.0 0.00 0.00 0.00 38 1002.7
20260504214016 58 315 18.0 25.0 0.00 0.00 0.00 38 1002.3
20260504213016 60 315 17.0 28.0 0.00 0.00 0.00 36 1002.2
20260504212016 59 0 16.0 26.0 0.00 0.00 0.00 37 1002.1
20260504211016 60 315 14.0 27.0 0.00 0.00 0.00 37 1002.2
20260504210016 60 338 17.0 25.0 0.00 0.00 0.00 35 1002.1
20260504205016 60 338 16.0 24.0 0.00 0.00 0.00 36 1002.2
20260504204016 59 315 15.0 20.0 0.00 0.00 0.00 35 1002.1
20260504203015 59 315 17.0 26.0 0.00 0.00 0.00 36 1002.0
20260504202036 60 315 18.0 27.0 0.00 0.00 0.00 34 1002.1
20260504201015 61 315 12.0 16.0 0.00 0.00 0.00 37 1002.2
20260504200035 60 315 16.0 23.0 0.00 0.00 0.00 35 1001.9
20260504195036 60 338 17.0 25.0 0.00 0.00 0.00 35 1001.6
20260504194015 60 315 12.0 19.0 0.00 0.00 0.00 37 1001.7
20260504193015 59 315 15.0 21.0 0.00 0.00 0.00 39 1001.8
20260504192015 57 315 13.0 22.0 0.00 0.00 0.00 41 1001.8
20260504191015 58 293 16.0 22.0 0.00 0.00 0.00 39 1001.5
20260504190016 59 315 17.0 23.0 0.00 0.00 0.00 37 1001.5
20260504185036 59 315 17.0 26.0 0.00 0.00 0.00 34 1001.4
20260504184035 60 315 20.0 27.0 0.00 0.00 0.00 32 1001.3
20260504183015 61 293 19.0 30.0 0.00 0.00 0.00 31 1001.0
20260504182036 61 315 18.0 27.0 0.00 0.00 0.00 31 1001.0
20260504181015 62 315 16.0 29.0 0.00 0.00 0.00 32 1000.7
20260504180036 61 315 17.0 28.0 0.00 0.00 0.00 31 1000.6
20260504175016 62 315 15.0 25.0 0.00 0.00 0.00 32 1000.4
20260504174015 62 315 18.0 31.0 0.00 0.00 0.00 32 1000.4
20260504173015 63 0 15.0 23.0 0.00 0.00 0.00 33 1000.2
20260504172015 62 315 15.0 21.0 0.00 0.00 0.00 33 1000.0
20260504171015 61 315 15.0 25.0 0.00 0.00 0.00 35 1000.0